SCP
0 0 0 0 0 0 0 0 0 0 0 0 0 0 0 0 0 0 0 0 0 0 0 0 0 0 0 0 0 0 0 0 0 0 0 0 0 0 0 0 0 0 0
0 0 0 0 0 0 0 0 0 0 0 0 0 0 0 0 0 0 0 0 0 0 0 0 0 0 0 0 0 0 0 0 0 0 0 0 0 0 0 0 0 0 0
0 0 0 0 0 0 0 0 0 0 0 0 0 0 0 0 0 0 0 0 0 0 0 0 0 0 0 0 0 0 0 0 0 0 0 0 0 0 0 0 0 0 0
0 0 0 0 0 0 0 0 0 0 0 0 0 0 0 0 0 0 0 0 0 0 0 0 0 0 0 0 0 0 0 0 0 0 0 0 0 0 0 0 0 0 0
0 0 0 0 0 0 0 0 0 0 0 0 0 0 0 0 0 0 0 0 0 0 0 0 0 0 0 0 0 0 0 0 0 0 0 0 0 0 0 0 0 0 0
0 0 0 0 0 0 0 0 0 0 0 0 0 0 0 0 0 0 0 0 0 0 0 0 0 0 0 0 0 0 0 0 0 0 0 0 0 0 0 0 0 0 0
0 0 0 0 0 0 0 0 0 0 0 0 0 0 0 0 0 0 0 0 0 0 0 0 0 0 0 0 0 0 0 0 0 0 0 0 0 0 0 0 0 0 0
0 0 0 0 0 0 0 0 0 0 0 0 0 0 0 0 0 0 0 0 0 0 0 0 0 0 0 0 0 0 0 0 0 0 0 0 0 0 0 0 0 0 0
0 0 0 0 0 0 0 0 0 0 0 0 0 0 0 0 0 0 0 0 0 0 0 0 0 0 0 0 0 0 0 0 0 0 0 0 0 0 0 0 0 0 0
0 0 0 0 0 0 0 0 0 0 0 0 0 0 0 0 0 0 0 0 0 0 0 0 0 0 0 0 0 0 0 0 0 0 0 0 0 0 0 0 0 0 0
0 0 0 0 0 0 0 0 0 0 0 0 0 0 0 0 0 0 0 0 0 0 0 0 0 0 0 0 0 0 0 0 0 0 0 0 0 0 0 0 0 0 0
0 0 0 0 0 0 0 0 0 0 0 0 0 0 0 0 0 0 0 0 0 0 0 0 0 0 0 0 0 0 0 0 0 0 0 0 0 0 0 0 0 0 0
0 0 0 0 0 0 0 0 0 0 0 0 0 0 0 0 0 0 0 0 0 0 0 0 0 0 0 0 0 0 0 0 0 0 0 0 0 0 0 0 0 0 0
0 0 0 0 0 0 0 0 0 0 0 0 0 0 0 0 0 0 0 0 0 0 0 0 0 0 0 0 0 0 0 0 0 0 0 0 0 0 0 0 0 0 0
0 0 0 0 0 0 0 0 0 0 0 0 0 0 0 0 0 0 0 0 0 0 0 0 0 0 0 0 0 0 0 0 0 0 0 0 0 0 0 0 0 0 0
0 0 0 0 0 0 0 0 0 0 0 0 0 0 0 0 0 0 0 0 0 0 0 0 0 0 0 0 0 0 0 0 0 0 0 0 0 -0 0 0 0 0 0
0 0 0 0 0 0 0 0 0 0 0 0 0 0 0 0 0 0 0 0 0 0 0 0 0 0 0 0 0 0 0 0 0 0 0 0 0 0 0 0 0 0 0
0 0 0 0 0 0 0 0 0 0 0 0 0 0 0 0 0 0 0 0 0 0 0 0 0 0 0 0 0 0 0 0 0 0 0 0 0 0 0 0 0 0 0
0 0 0 0 0 0 0 0 0 0 0 0 0 0 0 0 0 0 0 0 0 0 0 0 0 0 0 0 0 0 0 0 0 0 0 0 0 0 0 0 0 0 0
0 0 0 0 0 0 0 0 0 0 0 0 0 0 0 0 0 0 0 0 0 0 0 0 0 0 0 0 0 0 0 0 0 0 0 0 0 0 0 0 0 0 0
0 0 0 0 0 0 0 0 0 0 0 0 0 0 0 0 0 0 0 0 0 0 0 0 0 0 0 0 0 0 0 0 0 0 0 0 0 0 0 0 0 0 0
0 0 0 0 0 0 0 0 0 0 0 0 0 0 0 0 0 0 0 0 0 0 0 0 0 0 0 0 0 0 0 0 0 0 0 0 0 0 0 0 0 0 0
0 0 0 0 0 0 0 0 0 0 0 0 0 0 0 0 0 0 0 0 0 0 0 0 0 0 0 0 0 0 0 0 0 0 0 0 0 0 0 0 0 0 0
0 0 0 0 0 0 0 0 0 0 0 0 0 0 0 0 0 0 0 0 0 0 0 0 0 0 0 0 0 0 0 0 0 0 0 0 0 0 0 0 0 0 0
0 0 0 0 0 0 0 0 0 0 0 0 0 0 0 0 0 0 0 0 0 0 0 0 0 0 0 0 0 0 0 0 0 0 0 0 0 0 0 0 0 0 0
0 0 0 0 0 0 0 0 0 0 0 0 0 0 0 0 0 0 0 0 0 0 0 0 0 0 0 0 0 0 0 0 0 0 0 0 0 0 0 0 0 0 0
Wind_Speed
0 2 5 4 3 2 1 2 3 4 4 4 4 3 3 2 3 3 3 2 2 2 2 3 3 4 3 4 3 2 1 3 4 4 3 3 4 3 3 4 4 4 3
2 4 5 5 4 3 1 1 2 4 3 3 3 4 4 4 3 4 4 3 2 2 2 3 3 3 4 3 3 3 2 2 3 4 3 3 4 4 4 4 4 4 3
3 3 4 5 4 3 2 2 2 2 4 3 3 3 3 4 4 4 4 2 3 3 4 4 4 5 5 4 4 4 3 3 2 3 3 2 3 2 3 3 3 2 4
2 2 4 4 4 3 3 2 1 3 4 4 4 4 4 5 5 5 5 5 5 4 5 5 5 4 4 4 4 5 5 5 4 3 3 3 2 1 3 3 3 2 3
2 2 3 3 3 2 1 1 2 3 3 3 4 5 6 5 6 5 4 5 5 5 5 5 5 8 9 5 3 4 5 4 4 3 3 3 2 1 2 2 3 2 1
3 2 3 3 3 3 3 3 4 4 4 4 4 5 6 5 7 9 6 6 6 6 5 5 5 7 9 8 7 6 5 4 4 4 3 3 4 3 1 1 3 3 2
3 3 4 4 5 4 4 4 4 3 3 4 4 4 4 6 8 9 9 6 7 6 6 5 6 8 8 6 7 8 7 9 8 3 3 4 4 5 3 2 1 2 2
2 3 3 4 5 4 4 4 3 3 3 3 4 4 4 6 7 7 9 7 6 6 5 5 6 7 9 7 7 7 6 6 6 4 2 2 2 4 3 1 1 3 3
4 3 3 4 4 3 3 2 2 3 4 3 3 4 6 7 6 7 6 4 4 5 5 5 6 6 11 11 8 7 8 7 7 7 5 5 6 7 5 3 3 3 2
3 3 3 3 3 3 2 1 1 3 4 4 5 5 6 7 10 10 6 3 3 4 5 6 9 10 11 10 6 6 7 6 7 8 7 6 6 6 6 3 2 2 0
4 4 4 3 2 2 2 1 2 3 4 5 6 5 5 7 11 15 12 6 4 4 5 6 7 14 13 11 7 4 5 4 4 7 7 6 6 6 5 3 2 2 2
4 4 3 2 0 1 2 2 3 5 5 5 6 5 4 5 8 11 14 12 7 5 4 4 6 13 13 11 7 9 11 8 5 6 6 6 6 6 6 6 5 3 3
5 4 3 2 1 1 2 3 4 4 4 4 4 4 2 3 4 9 10 10 10 5 4 7 9 12 10 8 10 11 8 5 5 6 5 4 4 4 5 6 7 6 5
6 4 3 2 3 3 3 3 4 5 5 4 4 3 2 2 3 4 4 4 7 6 6 8 10 10 8 7 6 5 4 4 3 2 2 3 4 5 7 7 7 7 6
5 4 3 2 3 4 4 3 4 3 5 6 4 3 3 1 2 3 3 3 4 4 5 5 5 5 7 6 6 5 4 5 4 3 3 4 4 5 4 3 3 3 4
5 4 3 2 2 3 4 4 6 4 5 5 5 4 2 2 2 2 3 4 6 6 4 3 4 4 4 4 5 5 5 5 5 4 4 4 4 4 4 3 2 2 3
6 5 3 3 3 3 4 4 3 2 3 4 3 3 3 4 5 5 5 5 6 3 1 1 2 2 3 4 4 4 4 5 5 5 5 4 4 4 4 4 4 4 4
7 7 6 4 4 4 5 5 5 5 3 2 3 7 9 9 7 6 4 3 3 3 1 1 1 2 2 3 3 3 3 4 4 5 5 6 5 4 4 4 4 5 4
7 5 5 5 5 5 5 5 5 6 5 4 3 5 10 8 6 5 2 2 1 0 1 2 2 2 2 2 2 2 2 2 3 3 3 4 4 4 4 4 4 6 5
7 11 8 5 4 4 5 5 6 6 5 5 5 6 4 2 2 2 2 3 3 3 3 3 3 3 3 2 2 2 2 2 3 2 3 3 3 3 3 3 3 3 3
7 8 11 6 5 5 5 5 6 6 6 6 7 8 10 5 5 4 3 4 4 5 5 4 4 4 4 3 3 3 4 2 1 2 2 3 3 3 3 3 3 3 3
7 7 6 6 6 5 5 6 6 7 7 7 5 6 12 6 5 4 4 4 5 5 5 5 5 4 4 4 4 4 4 3 2 1 2 3 3 3 3 3 4 3 3
9 8 7 7 7 8 7 6 7 7 7 7 6 5 6 7 6 5 5 5 5 5 5 4 4 3 3 3 3 4 4 4 3 3 2 2 2 3 3 3 3 3 4
10 10 10 8 7 7 7 8 8 8 8 7 7 7 8 8 7 7 6 5 6 5 5 5 5 7 7 4 3 3 4 4 4 3 3 2 2 2 3 3 3 4 3
10 10 9 9 9 8 8 9 9 9 8 7 7 7 8 8 8 7 6 6 8 7 7 6 5 6 8 8 7 6 7 7 5 3 2 2 2 2 3 3 4 4 2
10 10 9 9 9 9 9 9 9 9 8 8 7 8 9 9 8 7 6 7 7 7 7 6 7 7 7 7 9 9 8 7 6 4 2 1 2 2 4 3 5 4 3
Wind_Direction
96 143 141 150 156 156 185 284 296 294 294 296 303 305 307 308 326 340 335 349 50 48 48 73 66 52 35 19 10 340 239 209 229 265 257 231 208 189 166 152 141 155 176
77 136 147 148 142 142 174 275 307 316 303 295 311 319 324 331 343 338 331 341 20 65 85 76 59 53 43 15 356 348 328 269 232 255 270 239 216 197 179 163 153 172 187
58 141 152 152 153 167 231 283 334 37 61 58 58 47 30 26 23 2 351 16 50 73 78 68 49 46 35 8 359 358 339 323 276 255 272 258 229 182 164 161 162 171 194
53 126 154 168 179 195 232 271 51 99 94 69 53 42 36 29 19 12 36 61 64 65 64 59 44 36 26 2 356 359 356 349 341 325 298 292 259 213 156 160 161 179 195
67 103 151 174 175 181 208 151 125 115 97 73 56 38 27 27 16 16 41 55 56 53 52 46 35 26 15 4 352 350 354 347 342 344 337 337 346 1 200 169 156 155 158
67 67 90 98 95 87 100 110 105 103 102 79 66 52 33 20 21 49 67 61 57 55 47 28 22 20 6 7 0 347 342 349 345 341 338 353 355 341 331 157 142 141 169
90 87 92 94 89 84 84 81 77 82 95 87 77 63 40 15 36 62 73 75 67 61 57 44 37 23 20 24 23 21 15 19 24 4 349 350 344 343 346 20 86 126 155
123 115 115 104 97 91 84 75 60 55 69 73 75 70 44 16 38 77 80 73 67 56 49 49 47 31 23 34 39 25 10 6 1 3 344 321 332 329 339 350 44 78 72
125 119 122 128 125 122 112 93 70 75 77 76 69 60 45 16 41 93 90 69 56 37 22 28 37 35 23 35 39 23 12 3 1 354 326 315 332 358 8 44 46 59 43
137 125 118 129 142 158 171 154 88 95 106 99 76 62 58 42 41 55 59 61 47 20 7 12 25 27 26 36 41 30 16 345 352 12 12 349 340 346 11 49 91 97 133
138 125 117 110 150 191 189 167 119 111 111 102 90 73 64 60 54 54 53 56 56 46 25 8 2 12 23 33 48 36 357 339 4 31 30 16 0 348 337 326 263 184 175
130 130 122 90 90 176 162 141 119 121 116 108 99 77 48 45 57 61 62 61 63 60 27 355 352 8 12 15 25 23 27 27 24 33 31 17 3 352 344 332 315 280 226
121 122 123 95 54 99 132 126 122 125 122 118 113 103 70 42 47 53 53 50 48 47 4 350 355 6 7 3 359 11 23 30 32 37 21 0 340 342 9 8 354 341 326
136 140 136 106 75 68 76 106 127 135 130 129 127 121 92 39 22 18 20 20 21 18 359 343 345 354 2 357 355 2 10 18 34 36 5 340 346 9 26 23 7 350 340
154 161 158 130 110 91 71 67 103 133 157 152 155 142 121 70 347 14 20 7 3 357 347 351 357 353 354 351 351 357 8 14 20 13 22 21 15 14 12 19 0 329 326
167 178 181 163 138 128 113 77 52 85 117 127 132 135 148 192 227 280 302 316 328 339 12 3 347 349 353 357 5 12 20 18 4 359 14 29 28 20 11 6 7 351 346
177 185 192 190 178 167 155 145 135 70 63 83 109 148 206 231 248 267 289 310 318 327 36 12 6 15 31 38 39 40 30 16 13 11 10 11 25 33 30 20 12 6 7
187 192 190 196 196 192 184 177 170 167 174 218 231 231 240 251 268 289 306 347 356 25 70 101 89 78 67 60 52 47 39 32 37 32 17 4 6 26 35 24 13 4 3
194 197 195 195 202 202 194 186 186 185 182 179 192 236 244 257 281 282 198 145 158 71 124 132 147 151 146 124 88 69 60 41 35 45 38 16 356 5 21 18 8 3 5
203 208 194 194 200 194 183 179 184 185 188 185 190 206 210 202 241 229 189 186 184 188 183 176 180 181 172 158 128 100 78 53 39 38 20 4 356 357 -0 10 12 3 354
203 209 204 190 192 187 174 171 172 172 180 189 200 205 187 186 208 218 205 196 190 187 185 185 184 182 181 174 157 134 127 113 76 51 29 7 3 2 350 352 0 5 348
203 204 193 188 192 191 180 174 175 179 183 186 200 213 200 192 204 210 209 205 196 191 190 186 189 191 187 182 174 162 156 153 141 84 47 21 8 2 357 355 353 348 338
201 204 203 200 193 191 187 182 186 190 192 191 189 190 189 203 212 210 209 203 189 188 191 184 180 185 187 191 190 176 169 171 167 145 98 45 20 2 348 340 339 343 346
194 196 200 203 197 188 188 193 197 199 198 196 192 192 196 204 212 214 209 196 183 182 179 172 169 170 171 172 173 165 164 162 149 132 115 94 36 357 344 339 333 333 339
192 189 192 199 201 200 198 200 204 207 206 203 198 197 199 203 210 213 206 189 178 178 178 172 170 174 177 175 171 167 161 154 147 141 123 108 46 4 344 332 325 318 325
197 195 193 195 201 205 204 205 209 212 212 210 203 198 197 200 205 205 194 183 180 180 178 178 180 178 177 177 175 169 168 164 158 146 131 89 26 359 348 328 322 316 305